• en France
  • Liste des pays
  • À 7 jours
  • Température de l'eau
  • Carte satellitaire
  • Carte météo
  • Widgets météo
  • user-avatar
    Se connecter

    Météo par heure à Sevan

    Ce jour, 20 Novembre, Lundi

    Heure Température Précipitation Vent Pression Humidité
    00:00 +6°C° 0,5 mm 2 m/s 640 mmHg 60%
    01:00 +6°C° 0,2 mm 2 m/s 640 mmHg 62%
    02:00 +6°C° 0,2 mm 2 m/s 640 mmHg 63%
    03:00 +5°C° 0 mm 2 m/s 640 mmHg 69%
    04:00 +5°C° 0 mm 2 m/s 640 mmHg 69%
    05:00 +5°C° 0 mm 2 m/s 640 mmHg 70%
    06:00 +4°C° 0 mm 2 m/s 640 mmHg 70%
    07:00 +5°C° 0 mm 2 m/s 640 mmHg 66%
    08:00 +5°C° 0 mm 3 m/s 640 mmHg 62%
    09:00 +7°C° 0 mm 3 m/s 640 mmHg 57%
    10:00 +8°C° 0 mm 3 m/s 640 mmHg 55%
    11:00 +9°C° 0 mm 3 m/s 640 mmHg 53%
    12:00 +10°C° 0 mm 4 m/s 640 mmHg 51%
    13:00 +10°C° 0 mm 4 m/s 640 mmHg 50%
    14:00 +10°C° 0 mm 4 m/s 639 mmHg 50%
    15:00 +10°C° 0 mm 3 m/s 639 mmHg 50%
    16:00 +9°C° 0 mm 3 m/s 639 mmHg 53%
    17:00 +7°C° 0 mm 3 m/s 638 mmHg 56%
    18:00 +6°C° 0 mm 2 m/s 638 mmHg 59%
    19:00 +6°C° 0 mm 2 m/s 638 mmHg 60%
    20:00 +6°C° 0 mm 2 m/s 638 mmHg 62%
    21:00 +5°C° 0 mm 2 m/s 638 mmHg 63%
    22:00 +5°C° 0 mm 2 m/s 637 mmHg 64%
    23:00 +5°C° 0 mm 2 m/s 637 mmHg 65%

    Demain, 21 Novembre, Mardi

    Heure Température Précipitation Vent Pression Humidité
    00:00 +5°C° 0 mm 2 m/s 637 mmHg 66%
    01:00 +5°C° 0 mm 2 m/s 637 mmHg 67%
    02:00 +5°C° 0 mm 2 m/s 637 mmHg 67%
    03:00 +5°C° 0 mm 2 m/s 636 mmHg 68%
    04:00 +5°C° 0 mm 2 m/s 636 mmHg 68%
    05:00 +4°C° 0 mm 2 m/s 636 mmHg 68%
    06:00 +4°C° 0 mm 2 m/s 636 mmHg 69%
    07:00 +5°C° 0 mm 2 m/s 636 mmHg 65%
    08:00 +7°C° 0 mm 3 m/s 636 mmHg 61%
    09:00 +8°C° 0 mm 3 m/s 636 mmHg 57%
    10:00 +9°C° 0,1 mm 3 m/s 636 mmHg 55%
    11:00 +9°C° 0,1 mm 3 m/s 636 mmHg 54%
    12:00 +10°C° 0,1 mm 4 m/s 635 mmHg 53%
    13:00 +10°C° 0,1 mm 4 m/s 635 mmHg 55%
    14:00 +10°C° 0,1 mm 4 m/s 635 mmHg 58%
    15:00 +10°C° 0,1 mm 4 m/s 634 mmHg 61%
    16:00 +8°C° 0 mm 4 m/s 634 mmHg 66%
    17:00 +8°C° 0 mm 3 m/s 633 mmHg 72%
    18:00 +7°C° 0 mm 3 m/s 633 mmHg 77%
    19:00 +5°C° 0,1 mm 3 m/s 633 mmHg 78%
    20:00 +5°C° 0,1 mm 3 m/s 633 mmHg 79%
    21:00 +5°C° 0,1 mm 3 m/s 633 mmHg 80%
    22:00 +5°C° 0,1 mm 3 m/s 633 mmHg 82%
    23:00 +5°C° 0,1 mm 3 m/s 633 mmHg 83%

    Après-demain, 22 Novembre, Mercredi

    Heure Température Précipitation Vent Pression Humidité
    00:00 +5°C° 0,1 mm 3 m/s 633 mmHg 84%
    01:00 +4°C° 0,1 mm 3 m/s 632 mmHg 84%
    02:00 +4°C° 0,1 mm 3 m/s 632 mmHg 85%
    03:00 +4°C° 0,1 mm 3 m/s 632 mmHg 85%
    04:00 +4°C° 1 mm 3 m/s 632 mmHg 85%
    05:00 +3°C° 1 mm 3 m/s 632 mmHg 85%
    06:00 +3°C° 1 mm 3 m/s 632 mmHg 85%
    07:00 +4°C° 1,6 mm 2 m/s 632 mmHg 85%
    08:00 +3°C° 1,6 mm 2 m/s 632 mmHg 86%
    09:00 +3°C° 1,6 mm 2 m/s 632 mmHg 86%
    10:00 +3°C° 0,9 mm 2 m/s 632 mmHg 83%
    11:00 +3°C° 0,9 mm 2 m/s 632 mmHg 81%
    12:00 +3°C° 0,9 mm 2 m/s 632 mmHg 79%
    13:00 +3°C° 0,5 mm 2 m/s 632 mmHg 78%
    14:00 +3°C° 0,5 mm 2 m/s 632 mmHg 76%
    15:00 +3°C° 0,5 mm 2 m/s 632 mmHg 75%
    16:00 +2°C° 0,3 mm 2 m/s 633 mmHg 77%
    17:00 +1°C° 0,3 mm 2 m/s 633 mmHg 79%
    18:00 -1°C° 0,3 mm 3 m/s 633 mmHg 81%
    19:00 -1°C° 0,2 mm 2 m/s 634 mmHg 81%
    20:00 -1°C° 0,2 mm 2 m/s 634 mmHg 81%
    21:00 0°C° 0,2 mm 1 m/s 635 mmHg 82%
    22:00 0°C° 0 mm 1 m/s 634 mmHg 81%
    23:00 -1°C° 0 mm 1 m/s 634 mmHg 80%

    23 Novembre, Jeudi

    Heure Température Précipitation Vent Pression Humidité
    00:00 -1°C° 0 mm 1 m/s 634 mmHg 79%
    01:00 -2°C° 0 mm 1 m/s 634 mmHg 77%
    02:00 -2°C° 0 mm 1 m/s 634 mmHg 75%
    03:00 -2°C° 0 mm 1 m/s 634 mmHg 73%
    04:00 -2°C° 0 mm 1 m/s 635 mmHg 73%
    05:00 -3°C° 0 mm 1 m/s 635 mmHg 73%
    06:00 -3°C° 0 mm 1 m/s 635 mmHg 73%
    07:00 -5°C° 0,1 mm 2 m/s 635 mmHg 74%
    08:00 -4°C° 0,1 mm 2 m/s 636 mmHg 74%
    09:00 -4°C° 0,1 mm 2 m/s 636 mmHg 74%
    10:00 -3°C° 0,1 mm 2 m/s 636 mmHg 73%
    11:00 -3°C° 0,1 mm 2 m/s 636 mmHg 71%
    12:00 -2°C° 0,1 mm 2 m/s 636 mmHg 69%
    13:00 -2°C° 0,1 mm 2 m/s 636 mmHg 70%
    14:00 -2°C° 0,1 mm 2 m/s 636 mmHg 70%
    15:00 -3°C° 0,1 mm 2 m/s 636 mmHg 71%
    16:00 -3°C° 0,1 mm 2 m/s 636 mmHg 72%
    17:00 -2°C° 0,1 mm 1 m/s 636 mmHg 74%
    18:00 -3°C° 0,1 mm 1 m/s 637 mmHg 75%
    19:00 -3°C° 0,1 mm 1 m/s 637 mmHg 75%
    20:00 -3°C° 0,1 mm 1 m/s 637 mmHg 75%
    21:00 -4°C° 0,1 mm 1 m/s 638 mmHg 75%
    22:00 -4°C° 0,1 mm 1 m/s 638 mmHg 75%
    23:00 -4°C° 0,1 mm 1 m/s 638 mmHg 75%

    24 Novembre, Vendredi

    Heure Température Précipitation Vent Pression Humidité
    00:00 -4°C° 0,1 mm 1 m/s 638 mmHg 75%
    01:00 -4°C° 0,1 mm 1 m/s 638 mmHg 76%
    02:00 -6°C° 0,1 mm 1 m/s 638 mmHg 76%
    03:00 -6°C° 0,1 mm 1 m/s 638 mmHg 76%
    04:00 -7°C° 0 mm 1 m/s 638 mmHg 77%
    05:00 -7°C° 0 mm 1 m/s 639 mmHg 77%
    06:00 -8°C° 0 mm 1 m/s 639 mmHg 77%
    07:00 -7°C° 0 mm 1 m/s 639 mmHg 76%
    08:00 -6°C° 0 mm 1 m/s 640 mmHg 74%
    09:00 -4°C° 0 mm 1 m/s 640 mmHg 73%
    10:00 -3°C° 0 mm 1 m/s 640 mmHg 71%
    11:00 -3°C° 0 mm 1 m/s 640 mmHg 68%
    12:00 -4°C° 0 mm 2 m/s 639 mmHg 66%
    13:00 -2°C° 0 mm 1 m/s 639 mmHg 66%
    14:00 -2°C° 0 mm 1 m/s 639 mmHg 66%
    15:00 -2°C° 0 mm 1 m/s 639 mmHg 67%
    16:00 -3°C° 0 mm 1 m/s 639 mmHg 67%
    17:00 -4°C° 0 mm 1 m/s 639 mmHg 68%
    18:00 -4°C° 0 mm 1 m/s 639 mmHg 69%
    19:00 -4°C° 0,1 mm 1 m/s 640 mmHg 69%
    20:00 -4°C° 0,1 mm 1 m/s 640 mmHg 70%
    21:00 -4°C° 0,1 mm 1 m/s 640 mmHg 70%
    22:00 -6°C° 0 mm 1 m/s 640 mmHg 71%
    23:00 -6°C° 0 mm 1 m/s 640 mmHg 72%

    25 Novembre, Samedi

    Heure Température Précipitation Vent Pression Humidité
    00:00 -7°C° 0 mm 1 m/s 641 mmHg 73%
    01:00 -7°C° 0 mm 1 m/s 641 mmHg 74%
    02:00 -7°C° 0 mm 1 m/s 641 mmHg 75%
    03:00 -7°C° 0 mm 1 m/s 641 mmHg 75%
    04:00 -7°C° 0 mm 1 m/s 641 mmHg 76%
    05:00 -7°C° 0 mm 1 m/s 642 mmHg 77%
    06:00 -7°C° 0 mm 1 m/s 642 mmHg 78%
    07:00 -7°C° 0,1 mm 1 m/s 642 mmHg 77%
    08:00 -6°C° 0,1 mm 1 m/s 643 mmHg 75%
    09:00 -4°C° 0,1 mm 1 m/s 644 mmHg 73%
    10:00 -3°C° 0 mm 1 m/s 643 mmHg 70%
    11:00 -3°C° 0 mm 1 m/s 643 mmHg 67%
    12:00 -4°C° 0 mm 2 m/s 643 mmHg 64%
    13:00 -2°C° 0 mm 1 m/s 643 mmHg 64%
    14:00 -2°C° 0 mm 1 m/s 643 mmHg 65%
    15:00 -2°C° 0 mm 1 m/s 643 mmHg 65%
    16:00 -3°C° 0 mm 1 m/s 643 mmHg 66%
    17:00 -6°C° 0 mm 1 m/s 643 mmHg 67%
    18:00 -7°C° 0 mm 1 m/s 644 mmHg 67%
    19:00 -7°C° 0 mm 1 m/s 644 mmHg 67%
    20:00 -8°C° 0 mm 1 m/s 644 mmHg 67%
    21:00 -8°C° 0 mm 1 m/s 644 mmHg 66%
    22:00 -8°C° 0 mm 1 m/s 644 mmHg 67%
    23:00 -8°C° 0 mm 1 m/s 644 mmHg 67%
    Voir plus